[[{"header":{"parameterUnit":"m.s-1","parameterCategory":1,"la1":30.2991,"la2":30.254,"lo1":-89.0895,"lo2":-89.0444,"dy":0.0017,"dx":0.0017,"nx":28,"ny":28,"refTime":"2024-05-03T09:00:00:Z","depth":0,"parameterNumber":2,"parameterNumberName":"U-component_of_WINDS"},"data":[0,0,0,0,0,0,0,0,0,0,0,0,0,0,0,0,0,0,0,0,0,0,0,0,0,0,0,0,0,0,0,0,0,0,0,0,0,0,0,0,0,0,0,0,0,0,0,0,0,0,0,0,0,0,0,0,0,0,-1.533,-1.533,0,-1.5362,-1.5362,-1.5362,-1.5342,-1.5341,-1.5341,-1.534,-1.5375,-1.5377,-1.5379,0,0,0,0,0,0,0,0,0,0,0,0,0,-1.5254,-1.5256,-1.533,-1.533,-1.533,-1.5362,-1.5362,-1.5362,-1.5343,-1.5341,-1.534,-1.5339,-1.5374,-1.5377,-1.5379,0,0,0,0,0,0,0,0,0,0,0,0,0,-1.5287,-1.5256,-1.5329,-1.5324,-1.5324,-1.5361,-1.5362,-1.5363,-1.5343,-1.5341,-1.534,-1.5339,-1.5374,-1.5376,-1.5379,-1.5424,0,0,-1.5388,-1.5389,0,0,0,0,0,0,0,0,-1.5285,-1.529,-1.5325,-1.5325,-1.5324,-1.5346,-1.5348,-1.5383,-1.5343,-1.5336,-1.534,-1.5338,-1.5367,-1.537,-1.5379,-1.5426,-1.5428,-1.5388,-1.5389,-1.5391,-1.5391,0,0,0,0,0,0,0,-1.5283,-1.5288,-1.5342,-1.5325,-1.5325,-1.5321,-1.5324,-1.5355,-1.5359,-1.5336,-1.5335,-1.5339,-1.5367,-1.5377,-1.538,-1.5428,-1.5388,-1.539,-1.5392,-1.5393,-1.5514,-1.5516,0,0,0,0,0,0,-1.5281,-1.5286,-1.5341,-1.5343,-1.5301,-1.5324,-1.5327,-1.5341,-1.5359,-1.536,-1.534,-1.5338,-1.5373,-1.5377,-1.5381,-1.5435,-1.5391,-1.5393,-1.5395,-1.5513,-1.5515,-1.5517,0,0,0,0,0,0,-1.5279,-1.5286,-1.534,-1.5315,-1.5321,-1.5326,-1.5342,-1.5342,-1.5352,-1.5361,-1.5362,-1.5349,-1.5372,-1.5377,-1.5414,-1.5436,-1.5394,-1.5397,-1.5511,-1.5514,-1.5516,-1.5544,0,0,0,0,0,0,-1.5277,-1.5285,-1.5302,-1.5315,-1.5323,-1.5371,-1.5344,-1.5344,-1.5357,-1.5354,-1.537,-1.5372,-1.5371,-1.541,-1.5417,-1.5439,-1.5399,-1.5509,-1.5512,-1.5515,-1.5541,-1.5547,-1.5552,0,0,0,0,0,-1.5274,-1.5309,-1.5303,-1.5309,-1.5343,-1.5372,-1.5377,-1.5375,-1.5359,-1.5376,-1.5382,-1.5371,-1.5433,-1.5414,-1.5421,-1.5445,-1.5508,-1.5511,-1.5515,-1.5539,-1.5546,-1.5552,0,0,0,0,0,0,-1.5299,-1.531,-1.5304,-1.5343,-1.5357,-1.5369,-1.539,-1.5382,-1.5402,-1.5398,-1.5396,-1.54,-1.5438,-1.5445,-1.5424,-1.549,-1.5468,-1.5473,-1.5484,-1.5491,-1.5496,-1.5493,-1.5401,0,0,0,0,0,-1.5309,-1.5331,-1.534,-1.5374,-1.5381,-1.5385,-1.5398,-1.5395,-1.5409,-1.5415,-1.5424,-1.5439,-1.5462,-1.5477,-1.5498,-1.5543,-1.5546,-1.5563,-1.5569,-1.5573,-1.5577,-1.5602,-1.561,-1.5528,-1.5528,-1.5528,0,0,-1.533,-1.5339,-1.5353,-1.5379,-1.539,-1.5413,-1.539,-1.5416,-1.5434,-1.5419,-1.5454,-1.5461,-1.5478,-1.5518,-1.5537,-1.5526,-1.5601,-1.5578,-1.5581,-1.5583,-1.5606,-1.5614,-1.5621,-1.5531,-1.553,-1.553,0,0,-1.5379,-1.5388,-1.5418,-1.5429,-1.5444,-1.5446,-1.5454,-1.5467,-1.5471,-1.5505,-1.5495,-1.5517,-1.5557,-1.5569,-1.5581,-1.5636,-1.5628,-1.5644,-1.5673,-1.5696,-1.5703,-1.5708,-1.5728,-1.5736,-1.5648,-1.5648,-1.5648,0,-1.5403,-1.5438,-1.5434,-1.5461,-1.5473,-1.5461,-1.5491,-1.5502,-1.5525,-1.5534,-1.5521,-1.5571,-1.5581,-1.5625,-1.5638,-1.5648,-1.5657,-1.5641,-1.5702,-1.5708,-1.5713,-1.5732,-1.5739,-1.565,-1.565,-1.565,-1.565,0,-1.5466,-1.5491,-1.5513,-1.5533,-1.5549,-1.5577,-1.5579,-1.5595,-1.5591,-1.5595,-1.5631,-1.5644,-1.5667,-1.5678,-1.5675,-1.5721,-1.5714,-1.5702,-1.5679,-1.5723,-1.574,-1.5748,-1.5653,-1.5652,-1.5652,-1.5651,0,0,-1.5532,-1.555,-1.5559,-1.5568,-1.5585,-1.5604,-1.5633,-1.5655,-1.5669,-1.5686,-1.571,-1.5744,-1.5733,-1.5746,-1.5744,-1.5765,-1.5809,-1.5751,-1.5751,-1.5761,-1.5861,-1.587,-1.5878,-1.5804,-1.5805,-1.5806,-1.586,0,-1.5582,-1.563,-1.5629,-1.5674,-1.5697,-1.5686,-1.5711,-1.5725,-1.573,-1.575,-1.5756,-1.578,-1.5764,-1.5772,-1.5792,-1.5799,-1.5829,-1.5796,-1.5827,-1.5828,-1.5822,-1.5888,-1.5897,-1.5947,-1.5867,-1.5868,-1.5869,0,-1.5647,-1.5665,-1.5712,-1.5726,-1.5735,-1.5758,-1.5779,-1.5798,-1.5814,-1.5817,-1.5832,-1.5827,-1.5857,-1.5834,-1.5876,-1.5854,-1.5867,-1.5872,-1.5874,-1.5876,-1.585,-1.5891,-1.5963,-1.597,-1.588,-1.5879,-1.5878,0,-1.5689,-1.5725,-1.5758,-1.5767,-1.5784,-1.58,-1.5808,-1.5822,-1.5836,-1.5855,-1.5864,-1.5887,-1.59,-1.5918,-1.592,-1.5903,-1.5962,-1.5939,-1.5965,-1.5965,-1.5977,-1.5977,-1.6051,-1.5987,-1.5987,-1.5987,-1.5986,0,-1.5745,-1.5775,-1.5777,-1.5798,-1.5831,-1.5829,-1.5863,-1.587,-1.5883,-1.5905,-1.5898,-1.5919,-1.5921,-1.5943,-1.5945,-1.598,-1.5986,-1.5989,-1.5989,-1.5989,-1.5989,-1.5997,-1.5993,-1.5989,-1.5988,-1.5988,-1.5987,0,-1.5798,-1.58,-1.5836,-1.5849,-1.5853,-1.5877,-1.5889,-1.5909,-1.5914,-1.5942,-1.5949,-1.5956,-1.5982,-1.5986,-1.6017,-1.6019,-1.606,-1.6057,-1.6054,-1.6054,-1.6079,-1.6076,-1.6161,-1.6172,-1.6101,-1.6102,-1.6102,0,-1.5833,-1.5855,-1.5871,-1.5885,-1.5894,-1.5916,-1.593,-1.5931,-1.5946,-1.5966,-1.5984,-1.6009,-1.6029,-1.6071,-1.608,-1.6104,-1.6101,-1.6129,-1.6105,-1.6104,-1.6101,-1.61,-1.6102,-1.6134,-1.6134,-1.6135,-1.6136,0,-1.5895,-1.5896,-1.5916,-1.5937,-1.5953,-1.597,-1.5986,-1.5998,-1.6,-1.6018,-1.6044,-1.606,-1.6091,-1.6116,-1.614,-1.615,-1.6143,-1.6143,-1.6151,-1.6151,-1.6148,-1.615,-1.6067,-1.6141,-1.6141,-1.614,-1.614,-1.614,-1.594,-1.5959,-1.5973,-1.5996,-1.6008,-1.6023,-1.6043,-1.6049,-1.6071,-1.6095,-1.6095,-1.6124,-1.614,-1.6171,-1.6183,-1.6206,-1.6197,-1.6207,-1.621,-1.6212,-1.6215,-1.6145,-1.621,-1.621,-1.621,-1.621,-1.621,0,-1.6002,-1.601,-1.6031,-1.6053,-1.6071,-1.6063,-1.6081,-1.6097,-1.6122,-1.6137,-1.6157,-1.6188,-1.6212,-1.6223,-1.6248,-1.6265,-1.6262,-1.6271,-1.627,-1.6272,-1.6221,-1.6212,-1.6272,-1.6272,-1.6272,-1.6272,-1.6272,-1.6272,-1.6036,-1.6068,-1.607,-1.6109,-1.6118,-1.6145,-1.6156,-1.617,-1.6183,-1.6216,-1.6237,-1.6243,-1.6258,-1.6283,-1.6306,-1.6309,-1.6318,-1.6328,-1.633,-1.6282,-1.6275,-1.6269,-1.6261,-1.633,-1.633,-1.6378,-1.6379,-1.6379]},{"header":{"parameterUnit":"m.s-1","parameterCategory":1,"la1":30.2991,"la2":30.254,"lo1":-89.0895,"lo2":-89.0444,"dy":0.0017,"dx":0.0017,"nx":28,"ny":28,"refTime":"2024-05-03T09:00:00:Z","depth":0,"parameterNumber":3,"parameterNumberName":"V-component_of_WINDS"},"data":[0,0,0,0,0,0,0,0,0,0,0,0,0,0,0,0,0,0,0,0,0,0,0,0,0,0,0,0,0,0,0,0,0,0,0,0,0,0,0,0,0,0,0,0,0,0,0,0,0,0,0,0,0,0,0,0,0,0,1.8247,1.8247,0,1.8296,1.8296,1.8297,1.8277,1.8276,1.8275,1.8274,1.8321,1.8323,1.8325,0,0,0,0,0,0,0,0,0,0,0,0,0,1.8134,1.8136,1.8247,1.8247,1.8248,1.8296,1.8296,1.8297,1.8277,1.8276,1.8274,1.8273,1.832,1.8323,1.8326,0,0,0,0,0,0,0,0,0,0,0,0,0,1.8183,1.8137,1.8247,1.8244,1.8244,1.8295,1.8296,1.8297,1.8278,1.8276,1.8274,1.8273,1.8319,1.8323,1.8326,1.8382,0,0,1.8337,1.8338,0,0,0,0,0,0,0,0,1.818,1.8187,1.8244,1.8244,1.8245,1.8279,1.8274,1.8325,1.8278,1.8265,1.8274,1.8272,1.8308,1.8312,1.8325,1.8384,1.8386,1.8337,1.8339,1.8341,1.8342,0,0,0,0,0,0,0,1.8177,1.8185,1.8266,1.8245,1.8245,1.824,1.8245,1.8283,1.8295,1.8266,1.8265,1.8271,1.8308,1.8322,1.8326,1.8387,1.8337,1.834,1.8342,1.8343,1.8493,1.8495,0,0,0,0,0,0,1.8174,1.8182,1.8265,1.8268,1.8208,1.8243,1.8249,1.8269,1.8295,1.8297,1.8272,1.827,1.8317,1.8322,1.8328,1.8394,1.8341,1.8344,1.8346,1.8491,1.8493,1.8495,0,0,0,0,0,0,1.8171,1.8181,1.8263,1.8225,1.8234,1.8247,1.827,1.8271,1.8285,1.83,1.8301,1.8284,1.8316,1.8323,1.8368,1.8395,1.8345,1.8348,1.8489,1.8492,1.8494,1.8527,0,0,0,0,0,0,1.8168,1.818,1.8202,1.8225,1.8237,1.8303,1.8272,1.8273,1.8292,1.8289,1.8312,1.8314,1.8315,1.8363,1.8372,1.8399,1.8351,1.8486,1.849,1.8493,1.8524,1.8531,1.8537,0,0,0,0,0,1.8164,1.8209,1.8204,1.8214,1.8264,1.8305,1.8311,1.8313,1.8294,1.8315,1.8325,1.8313,1.8391,1.8368,1.8378,1.8406,1.8485,1.8489,1.8493,1.8521,1.8529,1.8537,0,0,0,0,0,0,1.8188,1.8212,1.8206,1.826,1.8281,1.8302,1.8329,1.8322,1.8347,1.8344,1.8343,1.8348,1.8395,1.8405,1.8379,1.8461,1.8435,1.8441,1.8453,1.8461,1.8467,1.8464,1.8354,0,0,0,0,0,1.82,1.8232,1.8251,1.8297,1.8308,1.8317,1.8334,1.8334,1.8354,1.8363,1.8375,1.8395,1.8424,1.8443,1.8471,1.8525,1.8529,1.855,1.8556,1.8562,1.8567,1.8595,1.8604,1.8509,1.8509,1.8509,0,0,1.8224,1.8242,1.8262,1.8302,1.8318,1.835,1.8324,1.8359,1.8383,1.8368,1.8412,1.8422,1.8444,1.8494,1.8517,1.8504,1.8594,1.8567,1.8571,1.8573,1.8601,1.861,1.8618,1.8512,1.8511,1.8511,0,0,1.8285,1.8302,1.8341,1.8358,1.8383,1.8389,1.8398,1.842,1.8427,1.8471,1.846,1.8488,1.8538,1.8554,1.8569,1.8636,1.8626,1.8645,1.8678,1.8707,1.8714,1.8721,1.8744,1.8752,1.865,1.865,1.865,0,1.8312,1.8361,1.8362,1.8399,1.8416,1.8406,1.8445,1.8461,1.8493,1.8505,1.849,1.8553,1.8567,1.8621,1.8637,1.865,1.866,1.8642,1.8713,1.872,1.8726,1.8748,1.8756,1.8652,1.8652,1.8652,1.8652,0,1.8392,1.8426,1.8455,1.8487,1.8508,1.8546,1.8552,1.8573,1.8571,1.8578,1.8623,1.8639,1.867,1.8683,1.868,1.8736,1.8727,1.8713,1.8686,1.8737,1.8757,1.8766,1.8655,1.8655,1.8654,1.8653,0,0,1.8468,1.8501,1.8512,1.8526,1.8553,1.8579,1.8615,1.8646,1.8664,1.8686,1.8716,1.8759,1.8746,1.8763,1.8762,1.8787,1.8838,1.877,1.877,1.8781,1.8899,1.8909,1.8918,1.8832,1.8834,1.8835,1.8897,0,1.853,1.8596,1.8598,1.8658,1.8688,1.8679,1.8711,1.873,1.8738,1.8764,1.8772,1.8802,1.8784,1.8794,1.8818,1.8827,1.8861,1.8822,1.8859,1.886,1.8852,1.8929,1.894,1.8997,1.8905,1.8906,1.8907,0,1.8611,1.8637,1.8699,1.8721,1.8734,1.8763,1.8791,1.8817,1.8839,1.8842,1.8861,1.8857,1.8894,1.8867,1.8917,1.889,1.8905,1.8912,1.8914,1.8916,1.8886,1.8933,1.9016,1.9024,1.892,1.8919,1.8918,0,1.8659,1.871,1.8754,1.8766,1.8793,1.8813,1.8825,1.8845,1.8863,1.8888,1.8899,1.8927,1.8943,1.8964,1.8967,1.8947,1.9017,1.899,1.902,1.902,1.9034,1.9033,1.912,1.9046,1.9045,1.9045,1.9045,0,1.8727,1.8766,1.8775,1.8802,1.8845,1.8847,1.8889,1.8899,1.8917,1.8945,1.8938,1.8964,1.8967,1.8994,1.8997,1.9037,1.9044,1.9047,1.9047,1.9048,1.9047,1.9057,1.9052,1.9048,1.9047,1.9047,1.9046,0,1.8788,1.8796,1.8843,1.8865,1.8871,1.8902,1.892,1.8945,1.8952,1.8988,1.8996,1.9007,1.9038,1.9044,1.908,1.9082,1.913,1.9126,1.9123,1.9122,1.9151,1.9148,1.9246,1.9259,1.9178,1.9178,1.9179,0,1.883,1.886,1.8885,1.8904,1.8917,1.8947,1.8966,1.8969,1.8989,1.9016,1.9037,1.9068,1.9093,1.9143,1.9153,1.9181,1.9177,1.921,1.9181,1.918,1.9177,1.9175,1.9177,1.9215,1.9216,1.9217,1.9217,0,1.8904,1.8907,1.8935,1.8964,1.8987,1.901,1.9032,1.9047,1.9053,1.9075,1.9108,1.9127,1.9165,1.9195,1.9223,1.9234,1.9226,1.9226,1.9235,1.9234,1.9231,1.9232,1.9137,1.9224,1.9223,1.9223,1.9222,1.9222,1.8956,1.8982,1.9004,1.9035,1.9052,1.9072,1.9097,1.9108,1.9135,1.9166,1.9167,1.9202,1.9222,1.9258,1.9272,1.9298,1.9288,1.93,1.9303,1.9305,1.9308,1.9228,1.9303,1.9303,1.9303,1.9303,1.9303,0,1.9029,1.9043,1.9072,1.9103,1.9127,1.9119,1.9143,1.9163,1.9194,1.9214,1.9239,1.9276,1.9305,1.9318,1.9347,1.9366,1.9363,1.9373,1.9371,1.9374,1.9316,1.9306,1.9375,1.9375,1.9375,1.9375,1.9375,1.9375,1.907,1.9112,1.9118,1.9168,1.9182,1.9217,1.9231,1.9249,1.9265,1.9307,1.9332,1.934,1.9357,1.9387,1.9413,1.9416,1.9427,1.9438,1.944,1.9385,1.9378,1.9371,1.9361,1.9441,1.9441,1.9495,1.9496,1.9496]}]]